Regional Weather Roundup
Issued by NWS

Home | Current Version | Previous Version | Text Only | Print | Product List | Glossary On
Versions: 1 2 3 4 5 6 7 8 9 10 11 12 13 14 15 16 17 18 19 20 21 22 23 24 25 26 27 28 29 30 31 32 33 34 35 36 37 38 39 40 41 42 43 44 45 46 47 48 49 50
000
ASUS46 KLOX 302213
RWRCA

SOUTHERN CALIFORNIA WEATHER ROUNDUP
NATIONAL WEATHER SERVICE OXNARD CALIFORNIA
300 PM PDT MON MAY 30 2016

NOTE: "FAIR" INDICATES FEW OR NO CLOUDS BELOW 12,000 FEET WITH NO
SIGNIFICANT WEATHER AND/OR OBSTRUCTIONS TO VISIBILITY.

  -  STATIONS PRECEEDED BY AN ASTERISK (*) ARE NOT NWS OR FAA
     STATIONS AND ARE NOT SUBJECT TO NWS AND FAA QUALITY CONTROL.

CAZ041-042-087-302300-
LA AND ORANGE COUNTY COASTAL AREAS


CITY           SKY/WX    TMP DP  RH WIND       PRES   REMARKS
L.A. DOWNTOWN  MOSUNNY   70  56  61 CALM      29.94F
L.A. AIRPORT   MOSUNNY   66  55  67 W14G21    29.96F
LONG BEACH     MOSUNNY   72  55  55 SW8       29.94F

CITY           SKY/WX    TMP DP  RH WIND       PRES   REMARKS
AVALON           N/A     64 N/A N/A W3          N/A
FULLERTON      SUNNY     75  54  47 VRB6      29.93F
*GETTY CENTER    N/A     68  54  60 SW12G17     N/A
HAWTHORNE      MOSUNNY   68  55  63 W10       29.96F
*LOS ALAMITOS  FAIR      73  55  54 SW12      29.94F
*REDONDO BEACH   N/A     68  57  67 W7        29.96F
SANTA ANA      MOSUNNY   69  54  58 W8        29.94F
STA MONICA APT SUNNY     66  54  65 SW12      29.96F
*STA MON PIER    N/A     61  58  89 NW13      29.89F
TORRANCE       MOSUNNY   70  59  68 W12       29.96F
*UCLA            N/A     64  54  68 S6        29.92F

$$

CAZ547-548-048-302300-
LA COUNTY VALLEYS AND INLAND EMPIRE


CITY           SKY/WX    TMP DP  RH WIND       PRES   REMARKS
BURBANK        SUNNY     73  55  53 SE5       29.93F
VAN NUYS       SUNNY     76  54  46 SE13      29.92F

CITY           SKY/WX    TMP DP  RH WIND       PRES   REMARKS
CORONA AIRPORT CLEAR     77  56  48 W12       29.93F
*CHATSWORTH      N/A     78  56  47 NE3       29.91F
CHINO          MOSUNNY   80  56  43 W10       29.94F
MARCH AFB      SUNNY     77  54  45 N9        29.93F
*NORTHRIDGE      N/A     77  52  41 SE6         N/A
ONTARIO        MOSUNNY   76  52  43 W8        29.93F
*PASADENA        N/A     75  59  57 E3          N/A
POMONA         SUNNY     73  54  49 SW6       29.96F
RIVERSIDE      SUNNY     77  53  43 VRB3      29.92F
SAN BERNARDINO MOSUNNY   81  50  34 SW9       29.93F HAZE
*SAN RAFAEL HI   N/A     76  54  45 E6          N/A
*WHITEMAN AP   SUNNY     73  54  49 S9        29.96
*WHITTIER HILL   N/A     75  56  51 SW7         N/A
*WOODLAND HILL   N/A     81  54  39 NE6         N/A

$$

CAZ054-055-302300-
LA AND SAN BERNARDINO COUNTY MOUNTAINS


CITY           SKY/WX    TMP DP  RH WIND       PRES   REMARKS
*ACTON           N/A     87  48  25 W8G21       N/A
*BIG BEAR AIRP CLEAR     68  23  18 NE3       30.18F
*BIG PINES       N/A     73  26  17 S2          N/A
SANDBERG       SUNNY     82  32  16 N22G30    30.09F
*WARM SPRINGS    N/A     87  64  46 CALM        N/A

$$

CAZ028-029-059-060-099-302300-
ANTELOPE VALLEY AND SURROUNDING AREAS


CITY           SKY/WX    TMP DP  RH WIND       PRES   REMARKS
LANCASTER      SUNNY     94  30  10 N7        29.90F
PALMDALE       SUNNY     94  24   8 NE12      29.92F
*POPPY PARK      N/A     91  37  14 W15G32      N/A

CITY           SKY/WX    TMP DP  RH WIND       PRES   REMARKS
29 PALMS       MOSUNNY   90  20   7 VRB3      29.94F
BARSTOW/DAGGET SUNNY     94  25   8 MISG      29.87F
BISHOP         MOSUNNY   90  26  10 W13       29.99F
CHINA LAKE     MOSUNNY   96  30   9 E7        29.87F HX  90
EDWARDS AFB    SUNNY     94  25   8 VRB7      29.88F
MOJAVE         MOSUNNY   90  41  18 W20G26    29.94F
NEEDLES        SUNNY     98  22   6 VRB3      29.78F HX  91
VICTORVILLE    MOSUNNY   91  27   9 N10G18    29.93F

$$

CAZ039-040-302300-
VENTURA AND SANTA BARBARA COUNTY COAST


CITY           SKY/WX    TMP DP  RH WIND       PRES   REMARKS
CAMARILLO      PTSUNNY   68  54  60 SW12G20   29.96F
NWS OXNARD       N/A     70  55  59 SW5       29.96F
OXNARD AIRPORT PTSUNNY   67  56  67 W13       29.97F
*POINT MUGU    CLOUDY    66  56  70 W13       29.98F
SBA APT/GOLETA PTSUNNY   65  54  67 W9        29.97F
*VENTURA         N/A     67  57  68 SW9       29.94F

$$

CAZ044-045-302300-
VENTURA COUNTY VALLEYS


CITY           SKY/WX    TMP DP  RH WIND       PRES   REMARKS
*SIMI VALLEY     N/A     73  58  59 SW3       29.89F
*WESTLAKE VILL   N/A     73  58  60 N1        29.93F
*OJAI            N/A     76  58  53 CALM      29.85F
*FILLMORE        N/A     76  59  56 W10       29.83F

$$

CAZ053-302300-
VENTURA COUNTY MOUNTAINS


CITY           SKY/WX    TMP DP  RH WIND       PRES   REMARKS
*ROSE VALLEY     N/A     88  52  29 MISG        N/A

$$

CAZ034-035-036-302300-
CENTRAL COAST AND SANTA YNEZ VALLEY


CITY           SKY/WX    TMP DP  RH WIND       PRES   REMARKS
SAN LUIS OBISP SUNNY     73  54  51 NW16      29.97F
SANTA MARIA    SUNNY     66  53  63 NW13      29.99F

CITY           SKY/WX    TMP DP  RH WIND       PRES   REMARKS
*CAL POLY SLO    N/A     72  57  60 W8          N/A
*LOMPOC        SUNNY     65  52  62 W16       29.99F
*PISMO BEACH     N/A     57  54  89 SW7       30.00F
*SANTA YNEZ    FAIR      79  50  36 W13       29.95F

$$

CAZ037-038-051-302300-
SAN LUIS OBISPO COUNTY INTERIOR AND CUYAMA VALLEY


CITY           SKY/WX    TMP DP  RH WIND       PRES   REMARKS
*CUYAMA          N/A     86  42  20 N6        29.85F
PASO ROBLES    SUNNY     91  46  21 SW14      29.91F

$$

CAZ032-033-061-302300-
SOUTHERN DESERTS


CITY           SKY/WX    TMP DP  RH WIND       PRES   REMARKS
BLYTHE         SUNNY     94  35  12 SE9       29.78F
IMPERIAL       SUNNY     95  40  14 VRB6      29.77F HX  91
PALM SPRINGS   SUNNY     97  38  13 VRB3      29.80F HX  92
THERMAL        SUNNY     97  35  11 S9        29.75F HX  92

$$

ELSEWHERE ACROSS THE WESTERN UNITED STATES AND MEXICO


CITY           SKY/WX    TMP DP  RH WIND       PRES   REMARKS
DEATH VALLEY,    N/A    107  33   8 NW3         N/A  HX 100
DENVER, CO     CLOUDY    68  38  33 N13G25    29.99R THUNDER
GRAND CANYON,  PTSUNNY   70  25  18 N10       30.11F
HONOLULU, HI   PTSUNNY   81  64  57 NE10      30.04S
KAHULUI, MAUI  MOSUNNY   82  68  61 N13       30.04F
LAKE TAHOE, CA SUNNY     72  29  20 NE9       30.21F
LAS VEGAS, NV  MOSUNNY   94  26   9 CALM      29.81F
MAMMOTH LAKES, FAIR      76  23  13 NW3       30.23F
MEXICO CITY, M TSTM      75  50  41 N16       30.23
PHOENIX, AZ    MOSUNNY   92  15   6 NW7       29.80F
PORTLAND, OR   PTSUNNY   74  45  35 NW14      30.16F
RENO, NV       MOSUNNY   84  31  14 E8        30.09F
SALT LAKE CITY PTSUNNY   78  36  21 N14G20    30.05F
SAN DIEGO, CA  PTSUNNY   68  56  65 NW15      29.97F
SAN FRANCISCO, MOSUNNY   69  49  48 W20       29.95F
SAN JOSE, CA   MOSUNNY   82  56  40 W12       29.93F
SEATTLE, WA    MOSUNNY   71  43  36 N10       30.26F
TIJUANA, MEX   PTSUNNY   70  54  56 W14       29.97F

$$

STATION/POSITION TIME  TEMP    WIND        PRES    VSBY  WAVE
                       AIR SEA DIR/SP/G                  HT/PER
                 (UTC) (F)     (DEG/KT/KT) (MB)    (MI)  (FT/S)
POINT ARGUELLO B NOT AVBL
WEST SANTA BARBA 2150   56 56  320/ 12/ 14 1015.6F         4/ 9
POINT CONCEPTION NOT AVBL
EAST SANTA BARBA 2200   59 59  280/  6/  8 1015.5F
SANTA MONICA BAY 2150   59 64  270/  8/ 10 1015.3F         3/14



USA.gov is the U.S. government's official web portal to all federal, state and local government web resources and services.